• Processing (Info)

  • MPEC 2000-G29 : 2000 GG2

    The following Minor Planet Electronic Circular may be linked-to from your own Web pages, but must not otherwise be redistributed electronically.

    A form allowing access to any MPEC is at the bottom of this page.


    Read MPEC 2000-G28 Read MPEC 2000-G30


    M.P.E.C. 2000-G29                                Issued 2000 Apr. 6, 17:42 UT
    
         The Minor Planet Electronic Circulars contain information on unusual
             minor planets and routine data on comets.  They are published
       on behalf of Commission 20 of the International Astronomical Union by the
              Minor Planet Center, Smithsonian Astrophysical Observatory,
                              Cambridge, MA 02138, U.S.A.
    
                 Prepared using the Tamkin Foundation Computer Network
    
                 BMARSDEN@CFA.HARVARD.EDU or GWILLIAMS@CFA.HARVARD.EDU
              URL http://cfa-www.harvard.edu/iau/mpc.html  ISSN 1523-6714
    
                                       2000 GG2
    
    Observations:
         K00G02G* C2000 04 03.37516 15 39 33.99 +11 49 56.3          17.8        704
         K00G02G  C2000 04 03.38941 15 39 33.72 +11 50 49.1          18.8        704
         K00G02G  C2000 04 03.40367 15 39 33.37 +11 51 41.6          18.7        704
         K00G02G  C2000 04 03.41794 15 39 33.11 +11 52 34.8          18.3        704
         K00G02G  C2000 04 03.43222 15 39 32.83 +11 53 27.1          19.1        704
         K00G02G  C2000 04 04.30779 15 39 17.83 +12 47 24.3          18.5 V      854
         K00G02G  C2000 04 04.31076 15 39 17.81 +12 47 36.1          18.4 V      854
         K00G02G  C2000 04 04.31354 15 39 17.71 +12 47 47.4          18.5 V      854
         K00G02G  C2000 04 04.34347 15 39 17.01 +12 49 36.9          17.4        704
         K00G02G  C2000 04 04.35920 15 39 16.68 +12 50 35.8          18.1        704
         K00G02G  C2000 04 04.37435 15 39 16.33 +12 51 31.7          17.8        704
         K00G02G  C2000 04 04.38252 15 39 16.21 +12 52 01.4          18.2        704
         K00G02G  C2000 04 04.39043 15 39 15.94 +12 52 31.0          18.2        704
         K00G02G 4C2000 04 04.39611 15 39 15.93 +12 52 52.9                      673
         K00G02G  C2000 04 04.39706 15 39 15.84 +12 52 56.3          18.2        704
         K00G02G 4C2000 04 04.39825 15 39 15.87 +12 53 00.9                      673
         K00G02G 4C2000 04 04.40025 15 39 15.82 +12 53 08.6                      673
         K00G02G  C2000 04 04.40527 15 39 15.62 +12 53 26.3          17.7        704
         K00G02G  C2000 04 04.41155 15 39 15.48 +12 53 49.9          18.3        704
         K00G02G  C2000 04 04.42602 15 39 15.11 +12 54 44.2          17.9        704
         K00G02G  C2000 04 05.02003 15 39 03.31 +13 31 29.9                      557
         K00G02G  C2000 04 05.02155 15 39 03.28 +13 31 35.8                      557
         K00G02G  C2000 04 05.28479 15 38 57.91 +13 47 59.3          16.5        704
         K00G02G  C2000 04 05.30159 15 38 57.49 +13 49 02.5          16.7        704
         K00G02G  C2000 04 05.31857 15 38 57.01 +13 50 05.4          16.9        704
         K00G02G  C2000 04 05.33478 15 38 56.64 +13 51 06.0          17.1        704
         K00G02G  C2000 04 05.35178 15 38 56.19 +13 52 09.4          17.1        704
         K00G02G 5C2000 04 05.38605 15 38 55.34 +13 54 17.7          17.6        688
         K00G02G 5C2000 04 05.39227 15 38 55.19 +13 54 41.4          17.5        688
    
    Observer details:
    557 Ondrejov.  Observer P. Kusnirak.  0.65-m f/3.6 reflector + CCD.
    673 Table Mountain Observatory, Wrightwood.  Observer M. Hicks.  0.6-m
        reflector + CCD.
    688 Lowell Observatory, Anderson Mesa Station.  Observer L. A. Wasserman.
        1.8-m reflector + CCD
    704 Lincoln Laboratory ETS, New Mexico.  Observers M. Blythe, F. Shelly,
        M. Bezpalko, M. Elowitz, R. Huber.  Measurers J. Stuart, H. Viggh,
        R. Sayer, J. B. Evans.  1.0-m f/2.15 reflector + CCD.
    854 Sabino Canyon Observatory, Tucson.  Observer J. E. McGaha.  0.30-m f/6.1
        Schmidt-Cassegrain + CCD.
    
    Orbital elements:
    2000 GG2
    Epoch 2000 Mar. 17.0 TT = JDT 2451620.5                 Williams
    M 258.45442              (2000.0)            P               Q
    n   0.47074595     Peri.  125.18316     +0.69746178     +0.67801694
    a   1.6366092      Node   197.05476     -0.54063117     +0.71036512
    e   0.1223532      Incl.   52.29371     +0.47038814     -0.18887675
    P   2.09           H   15.7           G   0.15
    From 29 observations 2000 Apr. 3-5.
    
    Ephemeris:
    2000 GG2                 a,e,i = 1.64, 0.12, 52                  q = 1.4364
    Date    TT    R. A. (2000) Decl.     Delta      r     Elong.  Phase     V
    2000 03 27    15 40.21   +04 34.0    0.855    1.684   130.5    26.8    17.7
    2000 04 06    15 38.68   +14 32.6    0.799    1.668   135.6    24.8    17.5
    2000 04 16    15 32.11   +24 56.4    0.781    1.652   135.2    25.4    17.4
    2000 04 26    15 20.69   +34 26.2    0.799    1.636   129.5    28.3    17.5
    2000 05 06    15 05.55   +42 00.9    0.846    1.619   121.4    32.1    17.7
    2000 05 16    14 48.97   +47 20.1    0.911    1.603   112.8    35.6    18.0
    2000 05 26    14 33.74   +50 38.0    0.986    1.586   105.0    38.1    18.2
    2000 06 05    14 22.13   +52 21.4    1.062    1.570    98.2    39.8    18.4
    2000 06 15    14 15.51   +52 57.0    1.135    1.554    92.4    40.8    18.5
    2000 06 25    14 14.15   +52 46.1    1.199    1.538    87.5    41.3    18.6
    2000 07 05    14 17.75   +52 02.3    1.253    1.523    83.6    41.6    18.7
    2000 07 15    14 25.86   +50 54.7    1.295    1.509    80.5    41.6    18.8
    2000 07 25    14 37.91   +49 27.9    1.324    1.496    78.3    41.7    18.8
    2000 08 04    14 53.52   +47 43.6    1.341    1.484    76.7    41.7    18.8
    2000 08 14    15 12.37   +45 41.9    1.346    1.472    75.8    41.8    18.8
    2000 08 24    15 34.19   +43 21.6    1.341    1.463    75.5    42.0    18.8
    2000 09 03    15 58.84   +40 39.8    1.328    1.454    75.6    42.2    18.8
    2000 09 13    16 26.11   +37 34.5    1.311    1.447    76.0    42.4    18.7
    2000 09 23    16 55.73   +34 03.6    1.294    1.442    76.6    42.6    18.7
    2000 10 03    17 27.41   +30 06.7    1.281    1.439    77.1    42.7    18.7
    2000 10 13    18 00.70   +25 47.7    1.277    1.437    77.3    42.6    18.7
    2000 10 23    18 35.02   +21 13.9    1.286    1.437    76.9    42.4    18.7
    2000 11 02    19 09.82   +16 36.9    1.311    1.438    75.9    42.0    18.7
    2000 11 12    19 44.49   +12 10.6    1.354    1.442    74.1    41.3    18.8
    2000 11 22    20 18.52   +08 06.9    1.416    1.447    71.5    40.4    18.8
    2000 12 02    20 51.57   +04 34.6    1.492    1.453    68.3    39.1    18.9
    2000 12 12    21 23.40   +01 38.0    1.581    1.461    64.6    37.5    19.0
    2000 12 22    21 53.93   -00 43.4    1.679    1.471    60.6    35.6    19.1
    
    Gareth V. Williams           (C) Copyright 2000 MPC           M.P.E.C. 2000-G29
    

    Read MPEC 2000-G28 Read MPEC 2000-G30


    MPEC number:

    Enter an MPEC number in one of the following forms:

    • 1997-B01 (the full form)
    • J97B01 (the packed version of the full form)
    • B01 (the abbreviated form)